Regional Weather Roundup
Issued by NWS

Home | Current Version | Previous Version | Graphics & Text | Print | Product List | Glossary On
Versions: 1 2 3 4 5 6 7 8 9 10 11 12 13 14 15 16 17 18 19 20 21 22 23 24 25 26 27 28 29 30 31 32 33 34 35 36 37 38 39 40 41 42 43 44 45 46 47 48 49 50
000
ASUS43 KMKX 292221
RWRWI

WISCONSIN REGIONAL WEATHER ROUNDUP
NATIONAL WEATHER SERVICE MILWAUKEE/SULLIVAN WI
500 PM CDT FRI AUG 29 2014

NOTE: "FAIR" INDICATES FEW OR NO CLOUDS BELOW 12,000 FEET WITH NO
SIGNIFICANT WEATHER AND/OR OBSTRUCTIONS TO VISIBILITY.

WIZ001-002-006>008-014>016-023>028-292300-
NORTHWEST WISCONSIN

CITY           SKY/WX    TMP DP  RH WIND       PRES   REMARKS
SUPERIOR ARPT  CLOUDY    62  62  98 CALM      29.75R
ASHLAND        CLOUDY    69  66  90 S3        29.76R
HAYWARD        CLOUDY    68  67  96 S3        29.76S
SIREN          LGT RAIN  69  67  93 W5        29.76R
RICE LAKE      CLOUDY    69  67  93 E8        29.77S
LADYSMITH      TSTM      67  64  90 W5        29.83R
EAU CLAIRE     TSTM      72  70  93 W6        29.74S FOG
MENOMONIE      TSTM      72  69  88 CALM      29.75S
NEW RICHMOND   PTSUNNY   74  68  82 CALM      29.75R
OSCEOLA        PTSUNNY   73  71  95 CALM      29.76S
$$

WIZ003>005-009-010-017-018-292300-
NORTH CENTRAL WISCONSIN

CITY           SKY/WX    TMP DP  RH WIND       PRES   REMARKS
WOODRUFF       PTSUNNY   72  68  87 S5        29.83F
RHINELANDER    CLOUDY    70  65  84 S6        29.85R
EAGLE RIVER      N/A     70  66  85 S5        29.83R
LAND O LAKES   CLOUDY    72  65  78 S7        29.83S
PHILLIPS       CLOUDY    72  68  87 SW3       29.81S
TOMAHAWK       CLOUDY    72  66  82 CALM      29.84R HAZE
MEDFORD        MOSUNNY   76  70  81 SE8       29.81R
MERRILL        MOSUNNY   76  70  81 S5        29.81S
$$

WIZ029-030-035-036-043>047-292300-
CENTRAL WISCONSIN

CITY           SKY/WX    TMP DP  RH WIND       PRES   REMARKS
WAUSAU         MOSUNNY   79  70  74 S9        29.79F HX  82
MOSINEE        MOSUNNY   79  72  78 SE8       29.82F HX  82
MARSHFIELD     SUNNY     81  71  71 S9        29.79F HX  85
STEVENS POINT  PTSUNNY   81  70  68 S12       29.81S HX  84
WAUPACA        SUNNY     87  71  59 S8        29.80F HX  92
WAUTOMA        MOSUNNY   87  72  61 S9        29.80F HX  93
WISC RAPIDS    MOSUNNY   84  70  62 SW8       29.80F HX  88
CAMP DOUGLAS   SUNNY     86  72  63 S13       29.78F HX  92
$$

WIZ011>013-019>022-031-037>040-048>050-292300-
NORTHEAST WISCONSIN

CITY           SKY/WX    TMP DP  RH WIND       PRES   REMARKS
ANTIGO         MOSUNNY   74  69  84 S7        29.84S
STURGEON BAY   MOSUNNY   70  64  83 S18G28    29.84F
GREEN BAY      SUNNY     83  72  69 S13       29.81F HX  88
MANITOWOC      PTSUNNY   72  68  87 S22G30    29.85S
APPLETON       PTSUNNY   84  70  61 SW12      29.82F HX  88
CLINTONVILLE   MOSUNNY   82  70  65 S9        29.80F HX  86
OSHKOSH        PTSUNNY   84  70  62 S20G25    29.81F HX  88
$$

WIZ032>034-041-042-053>061-292300-
SOUTHWEST WISCONSIN

CITY           SKY/WX    TMP DP  RH WIND       PRES   REMARKS
LA CROSSE      MOSUNNY   88  72  58 S14       29.73F HX  94
SPARTA         MOSUNNY   84  67  56 S10       29.77S HX  87
VIROQUA        MOCLDY    83  69  61 S13       29.79S HX  87
BOSCOBEL       MOSUNNY   88  69  53 S12G21    29.78S HX  92
PRAIRIE DU CHI MOSUNNY   86  67  53 SE8       29.77R HX  89
PLATTEVILLE    FAIR      85  71  62 S14       29.83S HX  90
$$

WIZ056-057-062-063-064-067-068-292300-
SOUTH CENTRAL WISCONSIN

CITY           SKY/WX    TMP DP  RH WIND       PRES   REMARKS
BARABOO/DELLS  SUNNY     85  67  54 S12       29.80F HX  88
LONE ROCK      SUNNY     90  72  55 S13       29.79S HX  97
WATERTOWN      MOSUNNY   82  73  74 S8        29.84F HX  87
MADISON        PTSUNNY   84  69  60 S14       29.83S HX  88
MIDDLETON      FAIR      87  69  55 S10G17    29.83S HX  90
MONROE         SUNNY     82  72  69 S14       29.85R HX  87
JANESVILLE     SUNNY     86  70  58 S14       29.84F HX  90
$$

WIZ051-052-058>065-066-070>072-292300-
SOUTHEAST WISCONSIN

CITY           SKY/WX    TMP DP  RH WIND       PRES   REMARKS
MILWAUKEE      CLOUDY    78  71  79 S16       29.87F HX  80
WAUKESHA       PTSUNNY   79  72  78 SE12G17   29.87F HX  82
MILWAUKEE/TIMM MOSUNNY   82  70  65 S15       29.86F HX  86
RACINE         PTSUNNY   76  70  82 S15       29.89F
BURLINGTON     PTSUNNY   82  71  68 S7        29.86F HX  86
KENOSHA        PTSUNNY   81  73  76 SE13      29.88F HX  86
FOND DU LAC    MOSUNNY   83  71  67 S15       29.83S HX  87
SHEBOYGAN      MOSUNNY   73  68  84 S13G21    29.86S
WEST BEND      SUNNY     81  70  69 SE7       29.85F HX  84
JUNEAU         SUNNY     80  68  66 S15       29.86R HX  83
$$

LSZ147-162-292300-
LAKE SUPERIOR

STATION/POSITION TIME  TEMP    WIND        PRES    WAVE
                       AIR SEA DIR/SP/G            HT/PER
                 (UTC) (F)     (DEG/KT/KT) (MB)    (FT/S)
W MID LAKE BUOY  2150   59 57  100/  4/  4 1007.6S   1
DEVILS ISLAND    2200   62      30/  5/  6 1007.3F
PORT WING        2100   63      30/  9/ 10 1007.5F
SAXON HARBOR     2100   69     190/  2/  5 1007.8F
$$

LMZ867-665-643>646-292300-
LAKE MICHIGAN

STATION/POSITION TIME  TEMP    WIND        PRES    WAVE
                       AIR SEA DIR/SP/G            HT/PER
                 (UTC) (F)     (DEG/KT/KT) (MB)    (FT/S)
N MID LAKE BUOY  2150   67 65  200/  6/  8 1011.0F   3/ 5
NORTHPORT PIER   2100   68     170/ 12/ 18 1010.8F
SISTER BAY       2141   69     190/ 21/ 26   N/A
KEWAUNEE LAKESHO 2200   67     170/ 16/ 21 1010.0F
SHEBOYGAN LAKESH 2200   68 69  180/ 16/ 17 1011.1F
ATWATER BUOY     2200   72     160/ 16/ 17 1012.5R
MILWAUKEE LAKESH 2200   72     160/ 15/ 16   N/A
S MID LAKE BUOY  2150   72 69  150/ 16/ 19 1012.5F   3/ 4
KENOSHA   LAKESH 2200   74     180/ 16/ 19 1011.5S
$$

TC  - TEMPERATURE IN CELSIUS
VSB - VISIBILITY IN STATUTE MILES
WCI - WIND CHILL INDEX
HX  - HEAT INDEX




USA.gov is the U.S. government's official web portal to all federal, state and local government web resources and services.